This is the latest recevied weather packets stored in our database for station/object KB4JHU-15. If no packets are shown the sender has not sent any weather packets the latest 10 day(s).
| Time | Temp. | Humidity | Pressure | Rain* | Wind** | Luminosity | Snow |
|---|---|---|---|---|---|---|---|
| 1787953910 | 31.11° C | 45% | - | 0 mm | - | - | - |
| 1787952109 | 30.56° C | 45% | - | 0 mm | - | - | - |
| 1787950308 | 32.78° C | 41% | - | 0 mm | - | - | - |
| 1787948507 | 32.22° C | 41% | - | 0 mm | - | - | - |
| 1787946706 | 32.22° C | 45% | - | 0 mm | - | - | - |
| 1787944905 | 32.22° C | 44% | - | 0 mm | - | - | - |
| 1787943104 | 32.22° C | 41% | - | 0 mm | - | - | - |
| 1787941303 | 32.22° C | 46% | - | 0 mm | - | - | - |
| 1787939502 | 30.56° C | 48% | - | 0 mm | - | - | - |
| 1787937701 | 30° C | 54% | - | 0 mm | - | - | - |
| 1787935900 | 31.11° C | 50% | - | 0 mm | - | - | - |
| 1787934099 | 30.56° C | 51% | - | 0 mm | - | - | - |
| 1787932298 | 30° C | 55% | - | 0 mm | - | - | - |
| 1787930497 | 28.89° C | 61% | - | 0 mm | - | - | - |
| 1787928696 | 27.78° C | 66% | - | 0 mm | - | - | - |
| 1787926895 | 26.67° C | 75% | - | 0 mm | - | - | - |
| 1787925094 | 25° C | 81% | - | 0 mm | - | - | - |
| 1787923293 | 22.78° C | 87% | - | 0 mm | - | - | - |
| 1787921492 | 21.67° C | 94% | - | 0 mm | - | - | - |
| 1787919691 | 21.11° C | 98% | - | 0 mm | - | - | - |
| 1787917890 | 20° C | 97% | - | 0 mm | - | - | - |
| 1787916089 | 20° C | 96% | - | 0 mm | - | - | - |
| 1787914288 | 20° C | 96% | - | 0 mm | - | - | - |
| 1787912487 | 20° C | 95% | - | 0 mm | - | - | - |
| 1787910686 | 20° C | 95% | - | 0 mm | - | - | - |
* Rain latest hour (hover to see other rain measurements)
** Current wind speed in m/s (hover to see current wind gust speed)